Flag for Germany Weather past 2 weeks in Ingolstadt, Bavaria, Germany

Now
63 °F

Light rain. Partly sunny.


Feels Like: 63 °F
Forecast: 48 / 68 °F
Wind: 3 mph from East

Location: Ingolstadt Airport

Current Time: Sep 2, 2015 at 1:14:51 PM

Latest Report: Sep 2, 2015 at 12:20 PM


Visibility: N/A

Pressure: 30.04 "Hg

Humidity: 73%

Dew point: 54 °F

Location of IngolstadtLocation

Historic Weather in Ingolstadt — Graph

°F

Ingolstadt temperature yesterday

Maximum temperature yesterday: 88 °F (at 1:20 PM)
Minimum temperature yesterday: 61 °F (at 6:20 AM)
Average temperature yesterday: 71 °F

Past Weeks' High & Low Weather Summary

 TemperatureHumidityPressure
High91 °F (Aug 30, 4:20 PM)100% (Aug 21, 5:20 AM)30.30 "Hg (Aug 21, 5:20 AM)
Low46 °F (Aug 26, 4:20 AM)23% (Aug 26, 6:20 PM)29.71 "Hg (Aug 24, 3:20 PM)
Average68 °F67%30.04 "Hg
* Reported Aug 18 11:20 AM — Sep 2 11:20 AM, Ingolstadt, Weather by CustomWeather, © 2015

Note: Actual official high and low records may vary slightly from our data, if they occured in-between our weather recording intervals... More about our weather records

Advertising

Ingolstadt weather history for previous 24 hours

 ConditionsComfort  
Time TempWeatherWind HumidityBarometerVisibility
11:20 AM
Wed, Sep 2
63 °FBroken clouds.5 mph73%30.04 "HgN/A
10:20 AM61 °FPartly sunny.3 mph77%30.07 "HgN/A
9:20 AM61 °FScattered clouds.6 mph77%30.07 "HgN/A
8:20 AM59 °FPartly sunny.5 mph88%30.07 "HgN/A
7:20 AM59 °FPartly cloudy.2 mph88%30.04 "HgN/A
6:20 AM59 °FPassing clouds.5 mph88%30.04 "HgN/A
5:20 AM59 °FPassing clouds.7 mph94%30.04 "HgN/A
4:20 AM61 °FCool.6 mph88%30.04 "Hg4 mi
3:20 AM61 °FCool.6 mph94%30.04 "Hg4 mi
2:20 AM61 °FCool.5 mph94%30.04 "Hg5 mi
1:20 AM61 °FCool.5 mph94%30.04 "Hg6 mi
12:20 AM61 °FCool.5 mph94%30.04 "HgN/A
11:20 PM
Tue, Sep 1
61 °FCool.7 mph94%30.01 "HgN/A
10:20 PM61 °FCool.9 mph94%30.01 "Hg4 mi
9:20 PM63 °FMild.12 mph88%29.95 "Hg4 mi
8:20 PM64 °FMild.10 mph94%29.92 "Hg2 mi
7:20 PM66 °FMild.13 mph88%29.92 "Hg4 mi
6:20 PM75 °FBroken clouds.12 mph54%29.86 "HgN/A
5:20 PM75 °FPartly sunny.7 mph57%29.86 "HgN/A
4:20 PM75 °FSprinkles. Broken clouds.12 mph54%29.83 "HgN/A
4:01 PM75 °FThundershowers. Broken clouds.12 mph61%29.83 "HgN/A
3:20 PM84 °FThunderstorms. Partly sunny.16 mph35%29.80 "Hg5 mi
2:20 PM88 °FScattered clouds.8 mph33%29.80 "HgN/A
1:20 PM88 °FPassing clouds.2 mph35%29.80 "HgN/A
Weather by CustomWeather, © 2015

See weather overviewHow to use our weather pages